Total_Precipitation_Accumulation
0.39 0.50 0.59 0.77 0.92 1.01 1.10 1.12 1.12 1.16 1.29 1.28 1.17 1.04 0.86 0.71 0.60 0.52 0.46 0.38 0.32 0.28 0.21 0.14 0.13 0.11 0.09 0.09 0.10 0.10 0.08 0.06 0.07 0.06 0.03 0.01 0.01 0.00 0.00 0.01 0.01 0.01 0.01
0.28 0.35 0.42 0.51 0.67 0.81 0.98 1.08 1.10 1.15 1.15 1.15 1.19 1.20 1.23 1.06 0.86 0.76 0.63 0.50 0.46 0.41 0.32 0.26 0.24 0.21 0.19 0.17 0.16 0.15 0.15 0.13 0.14 0.13 0.11 0.04 0.01 0.00 0.01 0.01 0.01 0.01 0.01
0.18 0.23 0.28 0.38 0.48 0.61 0.80 1.01 1.12 1.19 1.20 1.25 1.40 1.42 1.42 1.22 0.97 0.72 0.62 0.60 0.59 0.60 0.50 0.45 0.43 0.38 0.33 0.26 0.23 0.24 0.25 0.22 0.19 0.19 0.19 0.12 0.04 0.02 0.01 0.01 0.01 0.01 0.01
0.10 0.13 0.18 0.25 0.32 0.41 0.56 0.75 0.94 1.10 1.20 1.27 1.31 1.26 1.21 1.08 0.90 0.85 0.81 0.83 0.80 0.77 0.73 0.68 0.64 0.57 0.49 0.40 0.36 0.32 0.30 0.28 0.22 0.19 0.17 0.17 0.13 0.12 0.07 0.02 0.02 0.02 0.02
0.09 0.10 0.11 0.16 0.20 0.28 0.41 0.56 0.72 0.91 1.07 1.19 1.27 1.33 1.23 1.14 1.13 1.07 0.98 0.88 0.82 0.79 0.78 0.76 0.75 0.68 0.60 0.56 0.54 0.49 0.44 0.37 0.31 0.26 0.22 0.22 0.17 0.13 0.14 0.09 0.05 0.05 0.05
0.08 0.08 0.08 0.09 0.12 0.14 0.24 0.37 0.49 0.65 0.80 1.00 1.16 1.23 1.15 1.12 1.07 1.04 1.01 0.96 0.89 0.82 0.76 0.73 0.71 0.68 0.65 0.64 0.61 0.59 0.54 0.49 0.43 0.38 0.32 0.31 0.27 0.20 0.19 0.19 0.12 0.11 0.09
0.07 0.06 0.07 0.07 0.08 0.10 0.13 0.20 0.31 0.43 0.53 0.69 0.83 0.94 1.04 1.05 1.00 0.99 0.96 0.91 0.85 0.79 0.75 0.73 0.70 0.68 0.65 0.64 0.63 0.60 0.55 0.54 0.49 0.43 0.39 0.38 0.36 0.31 0.30 0.28 0.19 0.15 0.11
0.07 0.07 0.07 0.08 0.10 0.09 0.10 0.15 0.21 0.29 0.38 0.46 0.54 0.63 0.75 0.82 0.77 0.76 0.79 0.80 0.79 0.81 0.83 0.80 0.78 0.79 0.78 0.73 0.69 0.64 0.60 0.57 0.53 0.47 0.42 0.38 0.34 0.33 0.33 0.33 0.34 0.30 0.22
0.06 0.06 0.08 0.07 0.11 0.11 0.10 0.11 0.15 0.21 0.29 0.33 0.38 0.39 0.47 0.54 0.59 0.58 0.57 0.60 0.64 0.68 0.72 0.73 0.74 0.73 0.73 0.71 0.69 0.65 0.62 0.59 0.54 0.50 0.47 0.42 0.37 0.35 0.35 0.38 0.44 0.53 0.50
0.05 0.06 0.07 0.08 0.09 0.10 0.10 0.09 0.12 0.16 0.20 0.24 0.27 0.29 0.33 0.37 0.43 0.47 0.44 0.42 0.45 0.50 0.53 0.55 0.58 0.58 0.58 0.58 0.59 0.56 0.54 0.52 0.48 0.47 0.47 0.45 0.42 0.40 0.40 0.43 0.49 0.58 0.66
0.07 0.06 0.05 0.06 0.06 0.08 0.08 0.09 0.11 0.14 0.15 0.16 0.16 0.18 0.23 0.26 0.28 0.31 0.33 0.33 0.34 0.34 0.37 0.38 0.42 0.43 0.44 0.44 0.43 0.39 0.38 0.39 0.39 0.38 0.40 0.42 0.41 0.41 0.43 0.47 0.53 0.61 0.69
0.06 0.04 0.03 0.03 0.04 0.05 0.07 0.10 0.12 0.13 0.12 0.11 0.10 0.11 0.16 0.19 0.21 0.21 0.22 0.24 0.26 0.27 0.28 0.29 0.29 0.28 0.28 0.30 0.31 0.30 0.30 0.30 0.31 0.35 0.38 0.40 0.40 0.42 0.42 0.46 0.52 0.58 0.62
0.05 0.04 0.04 0.03 0.03 0.04 0.08 0.12 0.13 0.11 0.09 0.10 0.09 0.10 0.12 0.14 0.15 0.17 0.18 0.18 0.19 0.20 0.21 0.22 0.21 0.21 0.21 0.22 0.23 0.25 0.26 0.27 0.27 0.28 0.30 0.32 0.34 0.36 0.37 0.39 0.43 0.45 0.47
0.06 0.06 0.06 0.04 0.04 0.06 0.09 0.11 0.11 0.11 0.12 0.12 0.12 0.14 0.16 0.17 0.17 0.17 0.16 0.16 0.16 0.15 0.14 0.13 0.13 0.13 0.13 0.14 0.16 0.19 0.21 0.22 0.22 0.22 0.23 0.25 0.28 0.33 0.36 0.38 0.39 0.38 0.37
0.05 0.05 0.06 0.05 0.06 0.07 0.08 0.09 0.11 0.15 0.18 0.19 0.18 0.17 0.18 0.18 0.18 0.16 0.14 0.12 0.11 0.09 0.08 0.09 0.10 0.11 0.11 0.10 0.11 0.13 0.17 0.21 0.24 0.28 0.31 0.35 0.41 0.42 0.38 0.34 0.31 0.28 0.27
0.04 0.04 0.04 0.04 0.04 0.06 0.09 0.12 0.16 0.22 0.27 0.27 0.23 0.20 0.19 0.18 0.17 0.15 0.14 0.12 0.10 0.09 0.08 0.09 0.10 0.14 0.16 0.24 0.21 0.17 0.18 0.24 0.29 0.33 0.36 0.38 0.40 0.37 0.33 0.29 0.24 0.23 0.26
0.04 0.04 0.03 0.03 0.03 0.06 0.13 0.20 0.25 0.31 0.33 0.36 0.33 0.28 0.25 0.22 0.18 0.16 0.17 0.19 0.20 0.20 0.20 0.21 0.22 0.24 0.32 0.41 0.36 0.34 0.28 0.29 0.32 0.32 0.30 0.28 0.25 0.22 0.18 0.17 0.18 0.20 0.18
0.03 0.03 0.03 0.03 0.04 0.07 0.15 0.23 0.29 0.40 0.41 0.41 0.40 0.39 0.39 0.39 0.39 0.38 0.39 0.40 0.39 0.40 0.42 0.44 0.45 0.46 0.50 0.49 0.40 0.35 0.30 0.30 0.29 0.26 0.21 0.17 0.13 0.11 0.10 0.12 0.15 0.08 0.04
0.02 0.02 0.02 0.03 0.04 0.07 0.13 0.21 0.33 0.47 0.56 0.59 0.58 0.58 0.61 0.65 0.69 0.71 0.69 0.69 0.70 0.69 0.66 0.63 0.57 0.51 0.49 0.44 0.35 0.28 0.24 0.22 0.18 0.14 0.11 0.08 0.06 0.06 0.10 0.11 0.07 0.03 0.01
0.07 0.05 0.05 0.06 0.09 0.12 0.18 0.30 0.46 0.60 0.69 0.71 0.73 0.76 0.80 0.85 0.82 0.80 0.77 0.69 0.63 0.61 0.59 0.57 0.53 0.45 0.37 0.29 0.22 0.18 0.14 0.11 0.08 0.05 0.04 0.04 0.04 0.06 0.09 0.06 0.04 0.02 0.01
0.17 0.17 0.18 0.20 0.22 0.25 0.34 0.47 0.58 0.66 0.69 0.69 0.69 0.71 0.68 0.67 0.62 0.60 0.57 0.51 0.45 0.39 0.34 0.30 0.26 0.21 0.17 0.13 0.11 0.08 0.06 0.04 0.04 0.04 0.03 0.02 0.04 0.06 0.07 0.05 0.02 0.02 0.04
0.22 0.29 0.34 0.37 0.37 0.40 0.46 0.52 0.54 0.54 0.52 0.49 0.47 0.43 0.38 0.32 0.29 0.28 0.28 0.25 0.22 0.19 0.15 0.12 0.10 0.08 0.06 0.06 0.06 0.06 0.05 0.05 0.04 0.03 0.02 0.02 0.05 0.05 0.04 0.02 0.01 0.03 0.03
0.09 0.14 0.20 0.24 0.25 0.25 0.27 0.29 0.26 0.23 0.19 0.16 0.14 0.13 0.10 0.09 0.07 0.06 0.06 0.07 0.07 0.07 0.07 0.06 0.06 0.05 0.04 0.04 0.05 0.06 0.08 0.08 0.06 0.04 0.05 0.05 0.05 0.03 0.02 0.01 0.01 0.01 0.00
0.03 0.04 0.06 0.07 0.07 0.08 0.08 0.09 0.07 0.05 0.04 0.03 0.03 0.03 0.03 0.03 0.03 0.03 0.03 0.04 0.05 0.05 0.05 0.05 0.04 0.05 0.05 0.06 0.06 0.07 0.08 0.10 0.08 0.06 0.05 0.05 0.04 0.03 0.01 0.01 0.01 0.00 0.00
0.03 0.04 0.04 0.04 0.04 0.04 0.05 0.05 0.05 0.04 0.04 0.03 0.03 0.03 0.03 0.04 0.03 0.03 0.04 0.05 0.05 0.06 0.07 0.07 0.07 0.06 0.06 0.06 0.09 0.10 0.11 0.12 0.11 0.09 0.06 0.05 0.04 0.03 0.02 0.01 0.00 0.00 0.00
0.04 0.04 0.04 0.05 0.06 0.06 0.07 0.07 0.07 0.08 0.07 0.07 0.06 0.06 0.06 0.07 0.07 0.07 0.07 0.08 0.08 0.10 0.10 0.10 0.09 0.08 0.09 0.10 0.13 0.14 0.14 0.15 0.17 0.14 0.09 0.05 0.03 0.02 0.02 0.01 0.01 0.01 0.01